Stündliche Wetter Abramovo

Heute, 23 Juni, Mittwoch

Zeit Temperatur Niederschläge Wind Luftdruck Luftfeuchtigkeit
00:00 +17°C° 0.3 mm 2 m/S 745 mmHg 92%
01:00 +16°C° 0.3 mm 2 m/S 745 mmHg 96%
02:00 +16°C° 0 mm 2 m/S 746 mmHg 96%
03:00 +16°C° 0 mm 2 m/S 746 mmHg 96%
04:00 +15°C° 0 mm 1 m/S 746 mmHg 96%
05:00 +16°C° 0 mm 2 m/S 746 mmHg 93%
06:00 +16°C° 0 mm 2 m/S 747 mmHg 91%
07:00 +17°C° 0 mm 3 m/S 747 mmHg 88%
08:00 +18°C° 0 mm 2 m/S 747 mmHg 79%
09:00 +19°C° 0 mm 2 m/S 748 mmHg 71%
10:00 +20°C° 0 mm 2 m/S 748 mmHg 61%
11:00 +22°C° 0 mm 1 m/S 748 mmHg 56%
12:00 +23°C° 0 mm 1 m/S 748 mmHg 51%
13:00 +23°C° 0 mm 0 m/S 749 mmHg 46%
14:00 +23°C° 0 mm 0 m/S 748 mmHg 44%
15:00 +25°C° 0 mm 1 m/S 748 mmHg 42%
16:00 +25°C° 0 mm 1 m/S 748 mmHg 41%
17:00 +25°C° 0 mm 1 m/S 748 mmHg 46%
18:00 +24°C° 0 mm 1 m/S 748 mmHg 52%
19:00 +23°C° 0 mm 1 m/S 748 mmHg 57%
20:00 +21°C° 0 mm 1 m/S 748 mmHg 61%
21:00 +17°C° 0 mm 0 m/S 748 mmHg 65%
22:00 +15°C° 0 mm 0 m/S 748 mmHg 68%
23:00 +14°C° 0 mm 0 m/S 748 mmHg 70%

Morgen, 24 Juni, Donnerstag

Zeit Temperatur Niederschläge Wind Luftdruck Luftfeuchtigkeit
00:00 +15°C° 0 mm 1 m/S 748 mmHg 72%
01:00 +14°C° 0 mm 1 m/S 748 mmHg 73%
02:00 +14°C° 0 mm 1 m/S 748 mmHg 76%
03:00 +14°C° 0 mm 1 m/S 748 mmHg 79%
04:00 +14°C° 0 mm 1 m/S 748 mmHg 82%
05:00 +16°C° 0 mm 1 m/S 748 mmHg 77%
06:00 +19°C° 0 mm 1 m/S 747 mmHg 72%
07:00 +21°C° 0 mm 1 m/S 747 mmHg 68%
08:00 +23°C° 0 mm 2 m/S 747 mmHg 64%
09:00 +25°C° 0 mm 2 m/S 747 mmHg 60%
10:00 +26°C° 0 mm 2 m/S 746 mmHg 56%
11:00 +28°C° 0 mm 2 m/S 746 mmHg 52%
12:00 +29°C° 0 mm 2 m/S 746 mmHg 49%
13:00 +30°C° 0 mm 1 m/S 746 mmHg 45%
14:00 +31°C° 0 mm 1 m/S 745 mmHg 43%
15:00 +31°C° 0 mm 1 m/S 745 mmHg 40%
16:00 +32°C° 0 mm 1 m/S 744 mmHg 38%
17:00 +29°C° 0.3 mm 2 m/S 744 mmHg 53%
18:00 +26°C° 0.3 mm 2 m/S 744 mmHg 68%
19:00 +22°C° 0.3 mm 3 m/S 744 mmHg 84%
20:00 +21°C° 1.9 mm 2 m/S 744 mmHg 89%
21:00 +19°C° 1.9 mm 2 m/S 744 mmHg 94%
22:00 +19°C° 1.9 mm 1 m/S 743 mmHg 98%
23:00 +19°C° 0 mm 1 m/S 743 mmHg 98%

übermorgen, 25 Juni, Freitag

Zeit Temperatur Niederschläge Wind Luftdruck Luftfeuchtigkeit
00:00 +19°C° 0 mm 1 m/S 743 mmHg 98%
01:00 +17°C° 0 mm 0 m/S 743 mmHg 98%
02:00 +19°C° 0 mm 1 m/S 743 mmHg 98%
03:00 +18°C° 0 mm 1 m/S 743 mmHg 99%
04:00 +18°C° 0 mm 1 m/S 743 mmHg 99%
05:00 +19°C° 0 mm 1 m/S 743 mmHg 97%
06:00 +20°C° 0 mm 1 m/S 743 mmHg 95%
07:00 +21°C° 0 mm 1 m/S 743 mmHg 93%
08:00 +23°C° 0 mm 1 m/S 743 mmHg 85%
09:00 +24°C° 0 mm 1 m/S 742 mmHg 77%
10:00 +26°C° 0 mm 2 m/S 742 mmHg 69%
11:00 +27°C° 0 mm 2 m/S 742 mmHg 64%
12:00 +29°C° 0 mm 2 m/S 742 mmHg 60%
13:00 +30°C° 0 mm 2 m/S 742 mmHg 55%
14:00 +30°C° 0.3 mm 2 m/S 741 mmHg 55%
15:00 +30°C° 0.3 mm 2 m/S 741 mmHg 55%
16:00 +30°C° 0.3 mm 1 m/S 741 mmHg 56%
17:00 +28°C° 0.4 mm 1 m/S 741 mmHg 66%
18:00 +26°C° 0.4 mm 1 m/S 740 mmHg 76%
19:00 +24°C° 0.4 mm 1 m/S 740 mmHg 86%
20:00 +23°C° 0 mm 1 m/S 740 mmHg 88%
21:00 +22°C° 0 mm 1 m/S 740 mmHg 90%
22:00 +19°C° 0 mm 0 m/S 740 mmHg 92%
23:00 +21°C° 0.3 mm 1 m/S 740 mmHg 93%

26 Juni, Samstag

Zeit Temperatur Niederschläge Wind Luftdruck Luftfeuchtigkeit
00:00 +21°C° 0.3 mm 1 m/S 740 mmHg 93%
01:00 +20°C° 0.3 mm 1 m/S 740 mmHg 94%
02:00 +20°C° 0.3 mm 1 m/S 740 mmHg 95%
03:00 +18°C° 0.3 mm 2 m/S 740 mmHg 96%
04:00 +17°C° 0.3 mm 2 m/S 740 mmHg 96%
05:00 +18°C° 0 mm 2 m/S 741 mmHg 94%
06:00 +19°C° 0 mm 3 m/S 741 mmHg 91%
07:00 +20°C° 0 mm 3 m/S 741 mmHg 88%
08:00 +21°C° 0 mm 3 m/S 741 mmHg 77%
09:00 +22°C° 0 mm 3 m/S 741 mmHg 67%
10:00 +25°C° 0 mm 4 m/S 742 mmHg 57%
11:00 +25°C° 0 mm 4 m/S 742 mmHg 54%
12:00 +25°C° 0 mm 4 m/S 742 mmHg 51%
13:00 +26°C° 0 mm 4 m/S 742 mmHg 48%
14:00 +25°C° 0 mm 4 m/S 742 mmHg 50%
15:00 +23°C° 0 mm 4 m/S 742 mmHg 53%
16:00 +22°C° 0 mm 4 m/S 743 mmHg 55%
17:00 +21°C° 0 mm 4 m/S 743 mmHg 61%
18:00 +20°C° 0 mm 3 m/S 743 mmHg 66%
19:00 +19°C° 0 mm 2 m/S 743 mmHg 72%
20:00 +18°C° 0 mm 2 m/S 743 mmHg 76%
21:00 +17°C° 0 mm 2 m/S 743 mmHg 80%
22:00 +16°C° 0 mm 1 m/S 743 mmHg 85%
23:00 +16°C° 0 mm 1 m/S 743 mmHg 86%

27 Juni, Sonntag

Zeit Temperatur Niederschläge Wind Luftdruck Luftfeuchtigkeit
00:00 +15°C° 0 mm 1 m/S 743 mmHg 87%
01:00 +15°C° 0 mm 1 m/S 743 mmHg 89%
02:00 +15°C° 0 mm 1 m/S 743 mmHg 89%
03:00 +15°C° 0 mm 1 m/S 743 mmHg 90%
04:00 +15°C° 0 mm 1 m/S 744 mmHg 90%
05:00 +16°C° 0 mm 1 m/S 744 mmHg 86%
06:00 +18°C° 0 mm 1 m/S 744 mmHg 81%
07:00 +19°C° 0 mm 1 m/S 744 mmHg 77%
08:00 +20°C° 0 mm 2 m/S 744 mmHg 69%
09:00 +21°C° 0 mm 2 m/S 744 mmHg 62%
10:00 +24°C° 0 mm 2 m/S 744 mmHg 55%
11:00 +25°C° 0 mm 3 m/S 744 mmHg 51%
12:00 +25°C° 0 mm 3 m/S 744 mmHg 47%
13:00 +26°C° 0 mm 3 m/S 744 mmHg 43%
14:00 +26°C° 0 mm 3 m/S 744 mmHg 45%
15:00 +25°C° 0 mm 3 m/S 744 mmHg 48%
16:00 +25°C° 0 mm 3 m/S 744 mmHg 50%
17:00 +24°C° 0 mm 2 m/S 744 mmHg 53%
18:00 +24°C° 0 mm 2 m/S 744 mmHg 56%
19:00 +23°C° 0 mm 2 m/S 744 mmHg 59%
20:00 +20°C° 0 mm 2 m/S 744 mmHg 64%
21:00 +20°C° 0 mm 1 m/S 745 mmHg 69%
22:00 +18°C° 0 mm 1 m/S 745 mmHg 74%
23:00 +16°C° 0 mm 1 m/S 745 mmHg 80%

28 Juni, Montag

Zeit Temperatur Niederschläge Wind Luftdruck Luftfeuchtigkeit
00:00 +15°C° 0 mm 1 m/S 745 mmHg 85%
01:00 +14°C° 0 mm 1 m/S 746 mmHg 91%
02:00 +14°C° 0 mm 1 m/S 746 mmHg 92%
03:00 +13°C° 0 mm 1 m/S 746 mmHg 94%
04:00 +13°C° 0 mm 1 m/S 746 mmHg 95%
05:00 +15°C° 0 mm 1 m/S 746 mmHg 88%
06:00 +18°C° 0 mm 1 m/S 747 mmHg 80%
07:00 +20°C° 0 mm 1 m/S 747 mmHg 72%
08:00 +19°C° 0 mm 0 m/S 747 mmHg 65%
09:00 +21°C° 0 mm 0 m/S 747 mmHg 58%
10:00 +23°C° 0 mm 0 m/S 747 mmHg 51%
11:00 +26°C° 0 mm 1 m/S 747 mmHg 46%
12:00 +26°C° 0 mm 1 m/S 747 mmHg 41%
13:00 +27°C° 0 mm 1 m/S 747 mmHg 37%
14:00 +27°C° 0 mm 1 m/S 746 mmHg 36%
15:00 +27°C° 0 mm 1 m/S 746 mmHg 35%
16:00 +27°C° 0 mm 1 m/S 746 mmHg 34%
17:00 +27°C° 0 mm 1 m/S 746 mmHg 42%
18:00 +26°C° 0 mm 1 m/S 746 mmHg 49%
19:00 +25°C° 0 mm 1 m/S 746 mmHg 56%
20:00 +23°C° 0 mm 1 m/S 746 mmHg 60%
21:00 +20°C° 0 mm 2 m/S 746 mmHg 65%
22:00 +18°C° 0 mm 2 m/S 746 mmHg 69%
23:00 +17°C° 0 mm 2 m/S 746 mmHg 73%
Mehr zeigen

Wir brauchen deine Erlaubnis

Meteoprog und unser Service Anbieter werden persönliche Daten aufbewahren, so wie Cookies, Geräte Bezeichnung oder ähnliche Technologien von deinem Gerät und Prozess, so wie Persönliche Daten Inhalte und Werbungen, genauso wie social Media und den Verkehr zu analysieren.

  • Aufbewahrung und/oder Zugang zu deiner Geräte Informationen.

    Cookies, Geräte Bezeichnung oder andere Informationen, können aufbewahrt oder Zugang zu deinem Gerät erhalten, für den Grund, der oben angegeben wird.

  • Personalisierte Werbung und Inhalte, Messungen, Einblick in das Publikum und Produkt Entwicklung.

    Werbungen und Inhalte können personalisiert werden, basierend auf ein Profil. Mehr Daten können besser personalisierte Werbungen und Inhalte hinzufügen. Werbung und Inhalte können gezeigt und gemessen werden. Einblicke über das Publikum, welche die Werbung gesehen haben und den Inhalt, können abgeleitet werden. So wie Daten können genutzt werden, um es zu verbessern oder die Benutzer Erfahrung zu verbessern das System und die Software.

Wenn du “Ich stimme zu” klickst, erlaubst du uns, die Cookies zu benutzen die Geräte Bezeichnung, den Web oder ähnliche Technologien zu benutzen. Deine Settings, können in deinem Gerät bei deinem Browser geändert werden.

Für den bestimmten Zweck, berechtigten Interessen beruhen darauf, mehr als auf den Inhalt. Du kannst mehr darüber in unseren Privaten und Cookie Politik lesen.